BUGSAT-1 (TITA)

Last updated on Tue Sep 22 2026 00:03:51 GMT+0000 (Coordinated Universal Time)

1 40014U 14033E 26264.59838439 .00003357 00000+0 17517-3 0 9990 2 40014 98.0424 2.8440 0026709 208.8358 151.1399 15.16417831670441
UTC large
Height (km)
Speed (km/s)
/
Latitude / Longitude
Inclination (degrees)
Orbital Period (minutes)
Azimuth
Elevation
Range (km)
Doppler Factor

Next 0 passes for location: London (51.5072 / 0.1276)

No passes found over London.
BUGSAT-1 (TITA)